Dewpoint
54 54 54 54 54 55 55 55 55 55 55 56 56 56 56 57 57 50 36 37 43 68 68 51 54 59 59 56 57 56 49 49 45 48 43 45 43 48 52 54 56 56 60 63 65
54 54 53 53 53 53 54 54 54 54 55 55 56 56 56 56 47 32 45 63 67 69 55 46 51 55 54 53 52 52 48 55 43 48 45 47 45 45 49 53 54 56 61 63 64
53 53 53 53 53 53 53 53 53 54 54 55 55 55 56 54 39 21 68 62 66 65 38 44 46 51 49 48 48 49 45 56 41 43 45 45 49 48 45 50 52 56 60 61 62
53 53 53 53 53 53 53 53 53 53 54 54 55 55 55 48 20 44 68 67 65 37 34 37 43 45 46 44 45 45 44 46 43 43 42 44 49 48 48 45 52 56 60 60 61
53 53 54 54 53 53 54 55 54 53 53 54 54 55 51 38 25 40 65 65 45 32 32 32 39 41 42 40 43 44 43 43 46 44 42 45 47 49 48 47 51 56 59 60 60
53 54 54 54 54 55 54 54 54 53 54 55 56 54 44 34 27 19 32 45 34 38 31 34 37 40 41 39 40 41 43 41 44 42 41 42 45 47 50 50 52 56 58 59 59
54 54 54 54 54 54 54 53 53 55 57 58 58 50 40 35 25 10 32 37 37 39 31 35 36 40 41 38 39 39 39 40 42 41 39 40 42 45 50 53 53 55 57 58 59
53 54 54 54 53 53 53 53 53 57 57 56 56 48 39 36 38 24 23 38 43 43 37 35 38 38 39 40 37 38 38 36 38 36 38 39 39 43 50 53 53 55 55 56 58
53 53 53 53 53 52 52 52 53 57 55 55 51 45 38 42 29 31 23 30 43 43 42 35 37 39 37 36 33 30 29 34 33 34 35 36 41 54 50 52 53 55 56 55 57
53 53 53 52 52 51 52 52 53 56 54 51 48 42 39 30 28 24 26 29 36 43 41 39 37 36 35 35 28 26 25 27 30 32 34 34 36 47 48 49 51 54 56 56 54
53 52 52 52 51 51 47 28 33 44 43 39 38 35 33 31 26 19 30 33 36 41 38 39 35 34 29 36 33 26 23 24 28 33 33 36 37 41 45 47 46 51 55 55 54
53 52 52 51 51 51 39 28 31 31 27 24 21 20 30 34 30 20 27 32 38 38 37 33 34 30 29 26 31 29 24 23 25 30 33 34 37 40 41 45 47 48 54 55 55
53 52 51 51 50 40 29 28 30 31 25 17 14 16 17 30 32 27 22 30 35 37 31 24 27 28 19 19 24 28 26 24 23 27 32 32 34 35 37 39 45 45 52 54 56
52 52 51 50 41 30 26 28 30 32 22 9 16 15 16 21 29 31 17 29 34 36 30 21 19 19 17 17 17 16 21 22 22 25 28 30 28 35 34 36 39 42 47 52 54
52 51 50 49 39 31 28 26 29 31 9 12 17 23 19 18 20 28 22 25 22 25 30 21 16 17 19 17 18 18 16 21 23 24 27 28 28 30 34 34 35 39 41 48 52
51 50 50 37 32 26 27 26 29 22 11 15 16 18 19 18 19 25 26 19 25 21 24 22 20 18 17 17 17 18 17 17 19 20 21 26 27 28 28 35 35 39 41 44 50
50 49 47 37 27 26 27 24 15 7 8 23 23 23 19 19 21 23 27 18 17 19 20 20 20 19 19 17 17 17 14 13 14 15 17 21 24 29 28 29 34 35 40 42 48
48 47 44 30 26 27 28 20 13 5 18 25 25 24 23 23 20 21 25 25 18 17 16 17 16 19 17 17 17 17 14 12 18 12 12 20 21 24 28 28 29 35 37 42 46
48 31 29 25 26 28 25 12 5 18 22 21 21 22 20 22 22 22 22 23 23 16 19 19 19 18 17 17 18 19 16 12 10 10 8 9 19 21 24 26 29 31 34 39 44
41 31 30 23 26 28 22 17 15 17 17 18 17 23 26 25 23 22 22 22 23 22 23 24 23 19 17 18 18 19 18 12 11 18 16 11 17 17 25 25 26 29 33 35 42
39 22 26 24 26 22 10 13 15 15 15 17 17 19 25 28 29 26 23 26 26 25 25 25 26 25 22 20 18 17 18 17 12 12 13 14 13 18 25 27 26 28 31 32 36
32 23 27 26 19 17 12 15 24 14 18 18 24 22 21 26 31 30 26 30 27 30 30 26 26 27 21 19 20 18 19 21 20 24 14 14 15 17 18 19 25 27 31 31 36
32 26 26 24 17 16 18 16 19 27 19 20 22 30 30 29 33 35 35 31 28 30 34 32 28 27 27 20 20 21 18 17 18 14 25 14 17 25 22 24 26 28 29 36 39
33 25 24 23 21 20 20 19 17 20 18 21 24 28 28 26 27 32 35 30 27 28 40 38 30 30 24 26 22 22 19 17 15 19 19 19 20 24 23 25 32 31 32 35 41
35 28 29 25 24 24 23 21 20 23 21 21 27 29 28 28 26 35 36 32 27 32 32 32 33 32 29 26 24 21 19 18 19 21 20 20 24 25 26 28 31 32 35 35 37
41 37 32 32 31 26 26 23 19 19 19 19 24 24 28 30 32 33 35 32 31 31 30 32 31 34 31 27 28 25 22 19 19 19 19 20 22 26 26 28 30 32 32 31 33
47 44 42 35 31 30 25 25 23 23 22 24 24 21 20 27 27 30 31 28 27 28 28 30 29 33 32 31 29 27 26 25 23 21 21 21 26 27 29 30 31 34 35 34 35
Lifted_Index
17 17 17 18 17 17 17 16 15 14 14 15 15 16 16 16 15 15 14 13 12 10 6 4 2 -1 -2 -2 -1 -1 -1 -1 -2 -2 -1 0 1 0 -1 -1 -2 -2 -3 -3 -2
17 18 18 18 18 18 17 17 16 15 15 14 15 15 16 16 15 14 13 13 12 10 7 5 2 -0 -1 -1 -1 -1 -1 -1 -1 -1 -1 -1 0 0 -0 -1 -2 -2 -3 -3 -3
18 18 18 18 18 18 18 18 17 17 16 15 14 15 15 15 13 11 11 11 11 10 9 6 4 1 -0 -1 -1 -1 -1 -1 -1 -1 -1 -2 -2 -1 -0 -1 -1 -2 -3 -3 -3
18 18 18 18 18 18 18 18 18 17 17 16 14 14 14 13 11 9 8 9 11 12 10 8 5 3 1 0 -0 -1 -1 -1 -1 -1 -1 -2 -3 -3 -1 -0 -1 -2 -3 -3 -3
18 18 18 18 18 18 18 18 18 18 17 16 15 14 13 11 10 9 8 9 11 12 11 8 6 4 2 1 -0 -0 -1 -1 -2 -1 -2 -3 -4 -4 -2 -1 -1 -2 -3 -3 -3
18 18 18 18 18 18 18 18 18 17 16 15 14 13 11 10 11 11 11 10 11 11 10 8 6 4 3 1 1 -0 -1 -1 -2 -2 -2 -3 -4 -5 -4 -2 -2 -2 -2 -3 -3
18 18 18 18 18 18 18 18 17 16 14 14 14 12 10 10 11 12 11 10 9 9 9 8 7 5 3 2 1 0 -0 -1 -1 -2 -2 -2 -3 -4 -5 -4 -3 -2 -2 -2 -3
18 18 18 18 19 19 19 18 16 14 14 14 13 11 10 10 11 12 11 10 8 7 8 8 7 5 4 3 2 2 1 -0 -1 -1 -1 -1 -2 -4 -4 -4 -4 -3 -3 -2 -2
18 18 18 18 19 19 19 18 16 14 13 13 12 10 9 9 10 11 11 10 7 6 7 7 7 6 5 4 4 3 2 0 -0 -1 -1 -1 -1 -2 -4 -4 -4 -4 -3 -2 -2
17 18 18 18 19 19 19 18 15 13 12 11 11 10 9 9 10 11 11 10 7 6 6 6 6 6 5 5 4 3 2 0 -0 -1 -1 -1 -1 -2 -3 -4 -4 -4 -4 -3 -2
17 17 18 18 18 18 18 17 15 13 12 11 11 10 9 9 10 11 11 9 7 6 6 6 6 6 6 5 4 3 1 -0 -0 -0 -1 -1 -1 -2 -3 -4 -4 -5 -4 -3 -3
18 18 18 19 19 18 17 16 16 15 13 12 11 11 10 9 10 11 11 9 7 6 6 6 5 6 6 6 5 3 1 -0 -0 -0 -1 -1 -1 -2 -2 -3 -4 -4 -4 -3 -3
18 19 19 19 19 18 17 17 17 16 13 10 10 11 11 10 9 10 10 9 7 6 6 6 6 6 7 6 6 4 3 1 -0 -1 -0 -1 -1 -1 -1 -2 -3 -3 -4 -3 -3
18 19 20 20 19 18 18 18 17 15 11 9 9 11 11 11 9 9 10 9 8 7 7 7 6 7 7 7 6 5 4 2 0 -0 -0 -0 -0 -1 -1 -1 -2 -2 -3 -3 -3
16 16 17 17 17 17 18 18 17 13 8 7 10 11 12 11 9 9 9 9 8 8 7 7 7 7 7 7 6 5 4 3 2 0 0 0 -0 -0 -1 -1 -1 -2 -2 -3 -3
12 12 12 12 12 13 15 16 15 11 6 6 9 11 11 10 9 8 9 9 9 8 7 7 7 7 6 6 6 6 5 4 3 2 1 1 0 -0 -0 -1 -1 -1 -2 -2 -2
10 10 9 8 8 9 10 11 11 8 5 6 9 10 10 9 9 8 8 9 8 8 7 7 7 7 7 6 6 6 5 4 2 2 2 2 1 1 -0 -1 -1 -1 -1 -2 -2
9 9 8 7 7 6 6 6 5 4 4 6 9 10 9 8 7 7 8 8 8 8 7 6 6 6 7 6 6 6 6 4 2 1 1 2 2 1 0 -0 -0 -0 -1 -1 -1
8 7 7 7 6 5 3 2 1 1 3 5 7 7 6 5 5 6 7 7 8 7 6 5 5 5 6 6 6 6 6 4 2 0 -0 0 1 1 1 0 1 1 0 -1 -1
7 6 6 6 5 3 1 -0 -0 1 2 3 5 5 3 3 4 5 5 6 6 7 6 4 3 4 5 6 6 6 5 4 3 1 -0 -1 -0 0 1 1 2 2 2 1 0
6 6 5 5 4 2 0 -0 -0 0 1 2 3 4 3 3 4 4 3 4 6 6 6 4 3 3 4 6 6 6 5 5 3 2 0 -1 -1 -0 1 2 2 2 2 2 1
5 5 4 4 3 1 0 -0 -0 -1 -0 1 2 3 4 4 4 3 3 4 6 6 6 5 3 3 3 4 5 5 5 5 4 3 1 0 0 1 1 2 3 3 3 2 2
4 4 4 4 3 2 1 0 -1 -1 -1 -0 1 2 3 3 3 3 4 6 7 7 6 5 5 4 3 3 4 5 5 5 4 3 2 1 1 2 3 3 3 3 3 2 1
4 3 3 3 2 2 1 0 -1 -1 -1 -1 -0 1 2 3 3 3 4 6 8 7 7 6 6 4 2 2 3 4 5 5 4 3 2 1 1 3 4 4 4 4 3 2 2
4 4 3 3 2 2 1 0 -0 -1 -1 -1 -0 0 1 2 2 3 4 5 7 7 7 7 6 4 3 1 2 3 5 5 4 4 3 1 1 2 3 4 5 4 4 4 4
5 5 4 3 2 2 1 0 -0 -1 -1 -1 -0 0 1 1 2 2 3 5 7 7 7 7 6 4 3 2 2 4 5 5 4 4 3 2 1 1 2 4 5 5 5 5 5
6 5 5 4 3 2 1 0 -0 -0 -1 -1 -0 0 0 1 2 3 3 5 7 8 8 7 6 4 3 3 3 4 5 5 4 3 3 2 1 1 2 5 5 5 6 6 5